Mc Entire JNGB Airport Eastover US
ICAO: KMMT
IATA: MMT
Category: Medium
Scheduled Services: No

Elevation: 254 ft
TransAlt. 18000 ft.

Airport Communications:
SHAW APP/DEP:125.4
CTAF:132.4
GND:127.625
ARNG OPS PTD:41.3
ANG OPS PTD:125.12
PMSV METRO:34.25
PTD:29.83
TWR:132.4

KMMT Zoom In..

If Map Doesn't Load, Click Here

Runways:

(A) RW 05 length 2033 ft width 90 ft
---- / hdg 49

(B) RW 14 length 9010 ft width 150 ft
---- / hdg 139

(C) RW 23 length 2033 ft width 90 ft
---- / hdg 229

(D) RW 32 length 9010 ft width 150 ft
ILS 111.10 / hdg 319

Location; KMMT
Day. 23 / Time. 08.41 Zulu
* Altimeter: 30.06
* Temperature: 18° c. 64.4°f.
* Wind from: 000° Speed 00 kn.
Dewpoint: 18° c.
Visibility: 6 Statute Miles.
Clouds: Clear (automated report).
Conditions: Mist.

KMMT 230841Z AUTO 00000KT 6SM BR CLR 18/18 A3006 RMK AO2 SLP180 $


Wind - Calm.

 
 
jpsmedia.com for Web Design worldairports.se 2018   terms of use